Location: Lassen National Park
(40.5158°N, 121.4639°W)
Time: 03:20:18
(UTC-07:00)

Hubble Space Telescope - Visible Passes

Search period start: 21 March 2019 00:00
Search period end: 31 March 2019 00:00
Orbit: 537 x 540 km, 28.5° (Epoch: 20 March)

Date Brightness Start Highest point End Pass type
(mag) Time Alt. Az. Time Alt. Az. Time Alt. Az.
25 Mar 3.1 21:03:23 10° SSW 21:04:31 13° S 21:04:31 13° S visible
26 Mar 2.8 20:52:33 10° SSW 20:54:48 14° S 20:54:48 14° S visible
27 Mar 2.8 20:41:49 10° SSW 20:44:12 15° S 20:45:01 14° SSE visible
28 Mar 2.8 20:31:08 10° SW 20:33:35 15° S 20:35:12 13° SSE visible
29 Mar 2.9 20:20:31 10° SW 20:22:58 15° S 20:25:21 10° SE visible
30 Mar 2.9 20:09:58 10° SW 20:12:21 15° S 20:14:45 10° SSE visible
